Simultaneous Nadir Overpasses (SNOs) Predictions

Prediction of SNOs between GOES-17 and AQUA Satellite Orbit:

Table of predicted SNOs for the next 14.0 days since TLE Epoch: 6/25/2022
Index Date Time (GOES-17) GOES-17 Lat,Lon AQUA Lat,Lon Distance(km) Time Diff (sec)
1 06/26/2022 10:34:57 0.03,-137.20 -0.57,-134.45 312.95 80
2 06/26/2022 22:58:55 -0.03,-137.20 -0.53,-139.61 274.17 80
3 06/28/2022 22:43:40 -0.02,-137.19 0.10,-136.55 73.07 80
4 06/30/2022 22:31:05 -0.02,-137.18 0.75,-133.49 419.87 80
5 07/01/2022 10:54:55 0.02,-137.18 0.31,-138.62 163.54 80
6 07/03/2022 10:39:39 0.02,-137.17 -0.30,-135.55 182.98 80
7 07/03/2022 23:03:37 -0.02,-137.16 -0.80,-140.71 404.60 80
8 07/05/2022 22:51:02 -0.02,-137.14 -0.12,-137.66 58.50 80
9 07/07/2022 22:35:46 -0.02,-137.11 0.51,-134.59 287.00 80
10 07/08/2022 10:59:35 0.02,-137.11 0.59,-139.71 296.85 80
